Home   Weather   Macon   Past weeks

Flag for USA Past Weather in Macon, Georgia, USA — Yesterday and Last 2 Weeks

Now
62 °F

Light rain. Mostly cloudy.


Feels Like: 62 °F
Forecast: 53 / 69 °F
Wind: 5 mph from West

Location: Middle Georgia Regional Airport

Current Time: Apr 23, 2017 at 9:52:25 pm

Latest Report: Apr 23, 2017 at 9:03 pm


Visibility: 8 mi

Pressure: 29.77 "Hg

Humidity: 93%

Dew Point: 60 °F

Location of MaconLocation

Past Weather in Macon — Graph

°F

Macon Temperature Yesterday

Maximum temperature yesterday: 86 °F (at 3:53 pm)
Minimum temperature yesterday: 60 °F (at 6:53 am)
Average temperature yesterday: 73 °F

High & Low Weather Summary for the Past Weeks

 TemperatureHumidityPressure
High89 °F (Apr 21, 2:53 pm)97% (Apr 13, 7:53 am)30.35 "Hg (Apr 13, 7:53 am)
Low38 °F (Apr 9, 6:53 am)24% (Apr 9, 3:53 pm)29.70 "Hg (Apr 23, 4:53 pm)
Average68 °F66%30.14 "Hg
* Reported Apr 8 7:53 pm — Apr 23 7:53 pm, Macon, Weather by CustomWeather, © 2017

Note: Actual official high and low records may vary slightly from our data, if they occured in-between our weather recording intervals... More about our weather records

Advertising

Macon Weather History for the Previous 24 Hours

Scroll right to see more
 ConditionsComfort  
Time TempWeatherWind HumidityBarometerVisibility
7:53 pm
Sun, Apr 23
64 °FMostly cloudy.8 mph87%29.74 "Hg10 mi
7:22 pm65 °FMostly cloudy.13 mph91%29.74 "Hg10 mi
6:53 pm67 °FMostly cloudy.9 mph90%29.73 "Hg10 mi
6:18 pm68 °FRain. Fog.10 mph87%29.74 "Hg4 mi
5:53 pm69 °FRain. Fog.10 mph90%29.73 "Hg2 mi
5:43 pm70 °FHeavy rain. Fog.12 mph87%29.73 "Hg2 mi
4:53 pm74 °FBroken clouds.8 mph69%29.70 "Hg10 mi
4:44 pm74 °FMore clouds than sun.3 mph69%29.71 "Hg10 mi
4:28 pm73 °FThundershowers. Mostly cloudy.6 mph74%29.73 "Hg10 mi
3:53 pm74 °FLight rain. Mostly cloudy.10 mph71%29.72 "Hg10 mi
2:53 pm80 °FMostly cloudy.13 mph51%29.73 "Hg10 mi
1:53 pm82 °FPartly sunny.12 mph49%29.75 "Hg10 mi
12:53 pm81 °FPassing clouds.9 mph53%29.78 "Hg10 mi
11:53 am78 °FScattered clouds.7 mph58%29.81 "Hg7 mi
10:53 am76 °FPartly sunny.5 mph64%29.82 "Hg10 mi
9:53 am73 °FPartly sunny.5 mph69%29.82 "Hg10 mi
8:53 am70 °FSunny.5 mph71%29.83 "Hg10 mi
7:53 am65 °FSunny.7 mph81%29.83 "Hg10 mi
6:53 am64 °FMostly cloudy.6 mph84%29.82 "Hg10 mi
5:53 am65 °FPartly cloudy.6 mph81%29.80 "Hg10 mi
4:53 am68 °FOvercast.No wind70%29.81 "Hg10 mi
3:53 am68 °FPassing clouds.6 mph70%29.81 "Hg10 mi
2:53 am68 °FClear.6 mph70%29.83 "Hg10 mi
1:53 am64 °FClear.No wind78%29.85 "Hg10 mi
12:53 am64 °FClear.No wind78%29.84 "Hg10 mi
11:53 pm
Sat, Apr 22
67 °FClear.No wind68%29.86 "Hg10 mi
10:53 pm69 °FPassing clouds.No wind68%29.86 "Hg10 mi
9:53 pm71 °FClear.No wind59%29.85 "Hg10 mi
Weather by CustomWeather, © 2017

See weather overviewHow to use our weather pages